Regional Weather Roundup
Issued by NWS

Home | Current Version | Previous Version | Graphics & Text | Print | Product List | Glossary On
Versions: 1 2 3 4 5 6 7 8 9 10 11 12 13 14 15 16 17 18 19 20 21 22 23 24 25 26 27 28 29 30 31 32 33 34 35 36 37 38 39 40 41 42 43 44 45 46 47 48 49 50
000
ASUS43 KBIS 162210
RWRND

NORTH DAKOTA REGIONAL WEATHER ROUNDUP
NATIONAL WEATHER SERVICE BISMARCK ND
500 PM CDT WED AUG 16 2017

NOTE: "FAIR" INDICATES FEW OR NO CLOUDS BELOW 12,000 FEET WITH NO
SIGNIFICANT WEATHER AND/OR OBSTRUCTIONS TO VISIBILITY.


NDZ001>003-009>011-017-162300-
NORTHWEST NORTH DAKOTA

CITY           SKY/WX    TMP DP  RH WIND       PRES   REMARKS
WILLISTON      SUNNY     83  54  36 NW5       29.89F
MINOT          SUNNY     80  49  33 NW13G20   29.90F
MINOT AFB      SUNNY     79  47  31 N10       29.89F
$$

NDZ018>021-031>035-040>046-162300-
SOUTHWEST NORTH DAKOTA

CITY           SKY/WX    TMP DP  RH WIND       PRES   REMARKS
BISMARCK       CLOUDY    77  55  46 N9        29.91F
DICKINSON      SUNNY     77  50  38 N5        29.93S
GARRISON         N/A     78  52  40 NE7       29.90F
HETTINGER ARPT CLOUDY    80  50  34 N8        29.97F
$$

NDZ004>008-012>016-024-026-027-054-162300-
NORTHEAST NORTH DAKOTA

CITY           SKY/WX    TMP DP  RH WIND       PRES   REMARKS
GRAND FORKS    CLOUDY    69  65  86 N12       29.84S
GRND FRKS AFB  CLOUDY    69  64  85 N10       29.85F
DEVILS LAKE    MOSUNNY   74  57  55 N12       29.88S
$$

NDZ022-023-025-028>030-036>039-047>053-162300-
SOUTHEAST NORTH DAKOTA

CITY           SKY/WX    TMP DP  RH WIND       PRES   REMARKS
FARGO          LGT RAIN  68  67  96 N7        29.82S
JAMESTOWN      CLOUDY    72  60  66 N15       29.85F
$$





USA.gov is the U.S. government's official web portal to all federal, state and local government web resources and services.